Date String (YYYY-MM-DD hh:mm:ss) UTC,Instrument flags,absolute air pressure of the measurement (hPa),sample flow rate (lpm),inlet stack bypass flow (lpm),air temperature of the measurement (°C),ambient temperature measured by the external sensor (°C),aerosol sample conditioner tube jacket temperature (°C),OPC LED temperature (°C),internal box temperature (°C),relative humidity of the measurement (%),span deviation,mass concentration of particles derived from Lorenz-Mie calculation of OPC scattering (μg/m³),mass concentration of particles derived from Lorenz-Mie calculation of OPC scattering (μg/m³),mass concentration of particles derived from Lorenz-Mie calculation of OPC scattering (μg/m³)
DateTimeUTC,F1_M11,P_M11,Q1_M11,Q2_M11,T1_M11,T2_M11,T3_M11,T4_M11,T5_M11,U1_M11,ZSPAN_M11,X0_M11,X2_M11,X1_M11
2023-06-10 18:00:00,SystemResetWarning,0829.7,5.00,000.00,029.3,025.6,000.0,037.7,030.7,25.4,0000.0,0009.67,0003.85,0003.23
2023-06-10 18:01:00,SystemResetWarning,0829.7,5.00,000.00,029.2,025.9,000.0,037.7,030.6,25.8,0000.0,0009.07,0003.88,0003.22
2023-06-10 18:02:00,SystemResetWarning,0829.7,5.00,000.00,029.2,026.3,000.0,037.7,030.7,26.6,0000.0,0009.02,0003.87,0003.20
2023-06-10 18:03:00,SystemResetWarning,0829.7,5.00,000.00,029.2,026.6,000.0,037.7,030.7,26.3,0000.0,0008.99,0003.86,0003.19
2023-06-10 18:04:00,SystemResetWarning,0829.7,5.00,000.00,029.2,026.9,000.0,037.7,030.7,25.5,0000.0,0008.91,0003.84,0003.18
2023-06-10 18:05:00,SystemResetWarning,0829.7,5.00,000.00,029.2,027.1,000.0,037.7,030.8,25.9,0000.0,0009.03,0003.82,0003.18
2023-06-10 18:06:00,SystemResetWarning,0829.7,5.00,000.00,029.2,027.3,000.0,037.7,030.8,26.3,0000.0,0009.04,0003.82,0003.18
2023-06-10 18:07:00,SystemResetWarning,0829.7,5.00,000.00,029.2,027.5,000.0,037.7,030.9,26.9,0000.0,0009.03,0003.81,0003.19
2023-06-10 18:08:00,SystemResetWarning,0829.7,5.00,000.00,029.3,027.7,000.0,037.8,030.9,26.1,0000.0,0008.92,0003.82,0003.21
2023-06-10 18:09:00,SystemResetWarning,0829.7,5.01,000.00,029.3,027.8,000.0,037.8,030.9,26.7,0000.0,0008.55,0003.85,0003.24
2023-06-10 18:10:00,SystemResetWarning,0829.7,5.00,000.00,029.3,027.9,000.0,037.8,031.0,26.0,0000.0,0008.32,0003.88,0003.26
2023-06-10 18:11:00,SystemResetWarning,0829.7,5.00,000.00,029.3,027.7,000.0,037.8,031.0,25.7,0000.0,0008.00,0003.92,0003.30
2023-06-10 18:12:00,SystemResetWarning,0829.7,4.99,000.00,029.4,025.9,000.0,037.7,031.0,25.6,0000.0,0007.91,0003.91,0003.31
2023-06-10 18:13:00,SystemResetWarning,0829.7,5.02,000.00,029.4,025.0,000.0,037.7,031.0,25.7,0000.0,0007.99,0003.94,0003.33
2023-06-10 18:14:00,SystemResetWarning,0829.7,5.00,000.00,029.3,025.2,000.0,037.7,030.7,26.3,0000.0,0008.20,0004.03,0003.36
2023-06-10 18:15:00,SystemResetWarning,0829.7,4.99,000.00,029.2,025.5,000.0,037.7,030.6,25.8,0000.0,0008.29,0004.08,0003.37
2023-06-10 18:16:00,SystemResetWarning,0829.7,5.00,000.00,029.2,025.9,000.0,037.7,030.6,25.9,0000.0,0008.08,0004.10,0003.37
2023-06-10 18:17:00,SystemResetWarning,0829.7,5.01,000.00,029.2,026.3,000.0,037.7,030.6,26.8,0000.0,0008.08,0004.12,0003.37
2023-06-10 18:18:00,SystemResetWarning,0829.7,5.01,000.00,029.2,026.6,000.0,037.7,030.7,25.9,0000.0,0008.08,0004.13,0003.37
2023-06-10 18:19:00,SystemResetWarning,0829.6,5.01,000.00,029.2,026.9,000.0,037.7,030.7,26.3,0000.0,0008.01,0004.10,0003.35
2023-06-10 18:20:00,SystemResetWarning,0829.7,5.00,000.00,029.2,027.2,000.0,037.7,030.8,27.0,0000.0,0008.02,0004.08,0003.35
2023-06-10 18:21:00,SystemResetWarning,0829.7,5.00,000.00,029.2,027.4,000.0,037.7,030.8,26.3,0000.0,0007.93,0004.06,0003.34
2023-06-10 18:22:00,SystemResetWarning,0829.7,5.00,000.00,029.2,027.5,000.0,037.7,030.8,26.1,0000.0,0008.08,0004.04,0003.33
2023-06-10 18:23:00,SystemResetWarning,0829.7,5.00,000.00,029.3,027.7,000.0,037.7,030.9,25.9,0000.0,0008.78,0004.06,0003.33
2023-06-10 18:24:00,SystemResetWarning,0829.7,5.00,000.00,029.3,027.8,000.0,037.7,030.9,26.0,0000.0,0009.02,0004.06,0003.33
2023-06-10 18:25:00,SystemResetWarning,0829.7,4.99,000.00,029.3,027.9,000.0,037.8,031.0,25.4,0000.0,0009.07,0004.06,0003.34
2023-06-10 18:26:00,SystemResetWarning,0829.7,4.98,000.00,029.3,026.8,000.0,037.7,030.9,25.8,0000.0,0009.38,0004.06,0003.34
2023-06-10 18:27:00,SystemResetWarning,0829.6,5.01,000.00,029.3,025.2,000.0,037.7,030.9,26.3,0000.0,0010.31,0004.07,0003.34
2023-06-10 18:28:00,SystemResetWarning,0829.6,5.01,000.00,029.3,025.1,000.0,037.7,030.8,26.5,0000.0,0010.40,0004.04,0003.33
2023-06-10 18:29:00,SystemResetWarning,0829.6,5.01,000.00,029.2,025.4,000.0,037.7,030.6,26.8,0000.0,0010.34,0004.02,0003.33
2023-06-10 18:30:00,SystemResetWarning,0829.6,5.00,000.00,029.1,025.8,000.0,037.7,030.5,27.1,0000.0,0010.31,0004.02,0003.33
2023-06-10 18:31:00,SystemResetWarning,0829.6,5.00,000.00,029.1,026.1,000.0,037.7,030.6,26.7,0000.0,0010.04,0004.03,0003.34
2023-06-10 18:32:00,SystemResetWarning,0829.6,5.00,000.00,029.1,026.5,000.0,037.7,030.6,25.2,0000.0,0009.86,0004.05,0003.36
2023-06-10 18:33:00,SystemResetWarning,0829.6,5.00,000.00,029.1,026.8,000.0,037.7,030.7,25.2,0000.0,0009.79,0004.07,0003.37
2023-06-10 18:34:00,SystemResetWarning,0829.6,5.00,000.00,029.1,027.0,000.0,037.7,030.7,25.6,0000.0,0009.60,0004.13,0003.40
2023-06-10 18:35:00,SystemResetWarning,0829.6,5.00,000.00,029.2,027.3,000.0,037.7,030.8,25.9,0000.0,0009.83,0004.18,0003.44
2023-06-10 18:36:00,SystemResetWarning,0829.5,5.00,000.00,029.2,027.4,000.0,037.7,030.8,26.0,0000.0,0010.30,0004.17,0003.45
2023-06-10 18:37:00,SystemResetWarning,0829.5,5.00,000.00,029.2,027.6,000.0,037.7,030.8,25.7,0000.0,0010.25,0004.18,0003.48
2023-06-10 18:38:00,SystemResetWarning,0829.5,5.00,000.00,029.2,027.7,000.0,037.7,030.9,25.3,0000.0,0009.58,0004.21,0003.53
2023-06-10 18:39:00,SystemResetWarning,0829.5,5.01,000.00,029.3,027.8,000.0,037.7,030.9,25.7,0000.0,0009.50,0004.26,0003.58
2023-06-10 18:40:00,SystemResetWarning,0829.5,5.00,000.00,029.3,027.9,000.0,037.7,030.9,25.3,0000.0,0009.72,0004.28,0003.60
2023-06-10 18:41:00,SystemResetWarning,0829.5,4.98,000.00,029.3,026.6,000.0,037.7,031.0,25.5,0000.0,0009.98,0004.33,0003.63
2023-06-10 18:42:00,SystemResetWarning,0829.4,5.01,000.00,029.3,025.1,000.0,037.7,030.9,25.6,0000.0,0010.15,0004.39,0003.66
2023-06-10 18:43:00,SystemResetWarning,0829.4,5.01,000.00,029.3,025.1,000.0,037.7,030.8,25.9,0000.0,0010.21,0004.40,0003.67
2023-06-10 18:44:00,SystemResetWarning,0829.4,5.00,000.00,029.2,025.4,000.0,037.7,030.6,26.0,0000.0,0010.70,0004.41,0003.67
2023-06-10 18:45:00,SystemResetWarning,0829.3,5.00,000.00,029.1,025.8,000.0,037.7,030.5,25.5,0000.0,0010.51,0004.37,0003.66
2023-06-10 18:46:00,SystemResetWarning,0829.3,5.00,000.00,029.1,026.2,000.0,037.7,030.6,25.5,0000.0,0009.95,0004.30,0003.62
2023-06-10 18:47:00,SystemResetWarning,0829.3,5.00,000.00,029.1,026.5,000.0,037.7,030.7,26.1,0000.0,0009.21,0004.28,0003.60
2023-06-10 18:48:00,SystemResetWarning,0829.3,4.98,000.00,029.1,026.8,000.0,037.7,030.7,26.9,0000.0,0008.98,0004.23,0003.58
2023-06-10 18:49:00,SystemResetWarning,0829.3,5.00,000.00,029.1,027.1,000.0,037.7,030.8,26.1,0000.0,0008.64,0004.19,0003.55
2023-06-10 18:50:00,SystemResetWarning,0829.3,5.01,000.00,029.2,027.3,000.0,037.7,030.8,25.4,0000.0,0008.59,0004.18,0003.54
2023-06-10 18:51:00,SystemResetWarning,0829.4,5.01,000.00,029.2,027.5,000.0,037.7,030.8,25.7,0000.0,0008.56,0004.21,0003.54
2023-06-10 18:52:00,SystemResetWarning,0829.4,5.00,000.00,029.2,027.6,000.0,037.7,030.9,25.3,0000.0,0008.34,0004.18,0003.54
2023-06-10 18:53:00,SystemResetWarning,0829.3,5.00,000.00,029.3,027.8,000.0,037.7,030.9,25.5,0000.0,0008.26,0004.11,0003.52
2023-06-10 18:54:00,SystemResetWarning,0829.3,5.00,000.00,029.3,027.9,000.0,037.7,031.0,26.2,0000.0,0008.39,0004.06,0003.48
2023-06-10 18:55:00,SystemResetWarning,0829.3,5.00,000.00,029.3,027.9,000.0,037.7,031.0,25.3,0000.0,0007.91,0004.05,0003.47
2023-06-10 18:56:00,SystemResetWarning,0829.4,4.98,000.00,029.3,026.6,000.0,037.7,031.0,24.8,0000.0,0008.01,0004.04,0003.48
2023-06-10 18:57:00,SystemResetWarning,0829.4,5.01,000.00,029.3,025.2,000.0,037.7,030.9,24.7,0000.0,0008.03,0004.02,0003.49
2023-06-10 18:58:00,SystemResetWarning,0829.4,5.01,000.00,029.3,025.3,000.0,037.7,030.8,24.9,0000.0,0008.04,0004.04,0003.52
2023-06-10 18:59:00,SystemResetWarning,0829.4,5.00,000.00,029.2,025.5,000.0,037.7,030.6,25.3,0000.0,0008.02,0004.06,0003.53
